TITAN 3C TRANSTAGE R/B, 3692

Orbit data source: Space-Track

TITAN 3C TRANSTAGE R/B, 3692 is space debris in GEO originally from a launch on Sun, 09 Feb 1969 UTC launched from the Air Force Eastern Test Range (AFETR). Debris objects in space refer to the collection of defunct objects orbiting the Earth. Examples of debris include non-operational satellites, rocket bodies, and fragments generated from explosions, collisions, or faulty payload assembly.

Not visible in the next 10 days
Identifier
3692, 1969-013B
Orbit
GEO
Country
Flag of USUS
Related business
Manufacturer
Martin Marietta
Mission
Spacecraft
Bus & Motor
TRANSTAGE, Unknown motor
Mass
2,028 kg wet, 2,028 kg dry
Launch date (UTC)
1969-02-09 (57 years ago)
Launch vehicle
Unknown
Launch site
Air Force Eastern Test Range (AFETR)
Object type
Payload
Rocket body
Debris
Shape & HBR
Unknown
Radar Cross Section
Large (>1 m²)

Expand to show TLE details & history
Last TLE update: 11 hours ago

TLE from 11 hours ago
0 TITAN 3C TRANSTAGE R/B
1 03692U 69013B   26071.79128391 -.00000122  00000-0  00000-0 0  9991
2 03692   1.0564  77.3410 0165641  36.1657   9.5440  0.97535714 41380
Epoch: 2026-03-12T18:59Z
TLE epoch observation values (Epoch: 2026-03-12T18:59:26.929Z)
Latitude
0.74995°
Longitude
28.07912°
Altitude
35,870.148 km
Speed
3.097 km/s
True Right ascension
08h 13m 30s
True Declination
0° 44' 57"
Sunlit
Object was in daylight at epoch
Visualization orbit readout
Latitude
Unknown
Longitude
Unknown
Altitude
Unknown
Speed
Unknown
Apparent Right ascension
Unknown
Apparent Declination
Unknown
Sunlit
N/A
Visualization observer readout
Local Sidereal Time
10:30:55
Azimuth
Unknown
Elevation
Unknown
Doppler factor
Unknown
Orbital elements
Apogee altitude
37,283.981 km
Perigee altitude
35,861.102 km
Semi-major axis
42,950.679 km
Eccentricity
0.01656
Inclination
1.0564°
RAAN
77.341°
Arg. of periapsis
36.1657°
True anomaly
9.86527°
Mean anomaly
9.544°
Eccentric anomaly
9.70397°
Mean motion
0.24383 °/min
Orbital period
1,476.44 mins
BSTAR
0
Loading maneuver chart data...
Computing Atmospheric mass density...

Documentation

Showing up to 5 results
|